Flag for Germany Weather past 2 weeks in Greifswald, Mecklenburg-Western Pomerania, Germany

Now
74 °F

Passing clouds.


Feels Like: 77 °F
Forecast: 59 / 80 °F
Wind: 6 mph from Northwest

Location: Greifswald

Current Time: Jul 31, 2014 at 8:02:40 PM

Latest Report: Jul 31, 2014 at 7:00 PM


Visibility: 19 mi

Pressure: 29.93 "Hg

Humidity: 47%

Dew point: 53 °F

Location of GreifswaldLocation

Historic Weather in Greifswald — Graph

°F

Greifswald temperature yesterday

Maximum temperature yesterday: 75 °F (at 1:00 PM)
Minimum temperature yesterday: 66 °F (at 5:00 PM)
Average temperature yesterday: 69 °F

Past Weeks' High & Low Weather Summary

 TemperatureHumidityPressure
High79 °F (Jul 27, 11:00 AM)99% (Jul 19, 6:00 AM)30.22 "Hg (Jul 19, 6:00 AM)
Low56 °F (Jul 18, 5:00 AM)44% (Jul 31, 4:00 PM)29.71 "Hg (Jul 30, 4:00 AM)
Average69 °F81%30.00 "Hg
* Reported Jul 16 7:00 PM — Jul 31 7:00 PM, Greifswald, Weather by CustomWeather, © 2014

Note: Actual official high and low records may vary slightly from our data, if they occured in-between our weather recording intervals... More about our weather records

Advertising

Greifswald weather history for previous 24 hours

 ConditionsComfort  
Time TempWeatherWind HumidityBarometerVisibility
7:00 PM
Jul 31
74 °FPassing clouds.6 mph47%29.93 "Hg19 mi
6:00 PM73 °FPartly sunny.3 mph59%29.93 "Hg17 mi
5:00 PM74 °FScattered clouds.5 mph51%29.93 "Hg19 mi
4:00 PM75 °FScattered clouds.6 mph44%29.93 "Hg19 mi
3:00 PM75 °FScattered clouds.5 mph47%29.93 "Hg16 mi
2:00 PM74 °FScattered clouds.5 mph53%29.93 "Hg22 mi
1:00 PM73 °FScattered clouds.6 mph52%29.93 "Hg13 mi
12:00 PM71 °FPartly sunny.5 mph63%29.94 "Hg16 mi
11:00 AM69 °FPartly sunny.5 mph70%29.93 "Hg19 mi
10:00 AM68 °FPartly sunny.3 mph71%29.92 "Hg19 mi
9:00 AM66 °FScattered clouds.3 mph80%29.91 "Hg12 mi
8:00 AM64 °FPassing clouds.3 mph85%29.90 "Hg14 mi
7:00 AM61 °FPassing clouds.3 mph90%29.89 "Hg12 mi
6:00 AM59 °FPassing clouds.3 mph92%29.88 "Hg14 mi
5:00 AM61 °FPassing clouds.3 mph85%29.87 "Hg19 mi
4:00 AM62 °FPassing clouds.3 mph84%29.86 "Hg19 mi
3:00 AM63 °FClear.3 mph87%29.84 "Hg19 mi
2:00 AM64 °FClear.3 mph85%29.84 "Hg22 mi
1:00 AM65 °FOvercast.5 mph84%29.83 "Hg19 mi
12:00 AM67 °FOvercast.3 mph90%29.82 "Hg11 mi
10:00 PM
Jul 30
67 °FOvercast.2 mph95%29.81 "Hg6 mi
9:00 PM67 °FOvercast.2 mph94%29.80 "Hg6 mi
8:00 PM66 °FOvercast.2 mph90%29.79 "Hg11 mi
Weather by CustomWeather, © 2014

See weather overviewHow to use our weather pages